This is the latest recevied weather packets stored in our database for station/object KD2PO-13. If no packets are shown the sender has not sent any weather packets the latest 1 day(s).
| Time | Temp. | Humidity | Pressure | Rain* | Wind** | Luminosity | Snow |
|---|---|---|---|---|---|---|---|
| 1777988718 | 20.56° C | 55% | 0 hPa | 0 mm | 4.92 m/s, 208° | - | - |
| 1777988118 | 20° C | 57% | 0 hPa | 0 mm | 4.92 m/s, 184° | - | - |
| 1777987818 | 20° C | 59% | 0 hPa | 0 mm | 2.68 m/s, 186° | - | - |
| 1777987518 | 20° C | 58% | 0 hPa | 0 mm | 4.02 m/s, 184° | - | - |
| 1777987218 | 19.44° C | 59% | 0 hPa | 0 mm | 3.58 m/s, 199° | - | - |
| 1777986918 | 19.44° C | 58% | 0 hPa | 0 mm | 4.92 m/s, 206° | - | - |
| 1777986618 | 19.44° C | 59% | 0 hPa | 0 mm | 4.02 m/s, 225° | - | - |
| 1777986318 | 19.44° C | 59% | 0 hPa | 0 mm | 4.92 m/s, 209° | - | - |
| 1777985719 | 18.89° C | 60% | 0 hPa | 0 mm | 4.02 m/s, 201° | - | - |
| 1777985118 | 18.89° C | 60% | 0 hPa | 0 mm | 4.47 m/s, 173° | - | - |
| 1777984743 | 18.89° C | 60% | 0 hPa | 0 mm | 3.58 m/s, 187° | - | - |
| 1777984444 | 18.89° C | 59% | 0 hPa | 0 mm | 5.81 m/s, 214° | - | - |
| 1777983843 | 18.33° C | 61% | 0 hPa | 0 mm | 3.13 m/s, 194° | - | - |
| 1777983543 | 18.33° C | 62% | 0 hPa | 0 mm | 4.92 m/s, 192° | - | - |
| 1777983243 | 18.33° C | 63% | 0 hPa | 0 mm | 4.02 m/s, 173° | - | - |
| 1777982944 | 17.78° C | 64% | 0 hPa | 0 mm | 3.58 m/s, 185° | - | - |
| 1777981443 | 16.67° C | 67% | 0 hPa | 0 mm | 3.58 m/s, 183° | - | - |
| 1777981143 | 16.67° C | 68% | 0 hPa | 0 mm | 3.13 m/s, 177° | - | - |
| 1777980844 | 16.67° C | 68% | 0 hPa | 0 mm | 3.13 m/s, 194° | - | - |
| 1777980244 | 16.11° C | 70% | 0 hPa | 0 mm | 3.13 m/s, 177° | - | - |
| 1777979944 | 15.56° C | 72% | 0 hPa | 0 mm | 2.68 m/s, 179° | - | - |
| 1777979643 | 15.56° C | 72% | 0 hPa | 0 mm | 3.58 m/s, 156° | - | - |
| 1777979343 | 15.56° C | 73% | 0 hPa | 0 mm | 4.02 m/s, 167° | - | - |
| 1777979043 | 15.56° C | 74% | 0 hPa | 0 mm | 4.02 m/s, 164° | - | - |
| 1777978743 | 15.56° C | 74% | 0 hPa | 0 mm | 3.13 m/s, 153° | - | - |
* Rain latest hour (hover to see other rain measurements)
** Current wind speed in m/s (hover to see current wind gust speed)